Skip Page Navigation
NASA JPL Caltech
NASA Logo - Jet Propulsion Laboratory + View the NASA Portal
+ Center for Near-Earth Object Studies
JPL Home Earth Solar System Stars & Galaxies Technology
JPL Solar System Dynamics
BODIES ORBITS EPHEMERIDES TOOLS PHYSICAL DATA DISCOVERY FAQ SITE MAP
IMPORTANT: The SSD Announcement email list is now available. Major changes are coming in the near future, including possible hostname and/or URL changes. To be notified of such changes, subscribe to this email list.

Please visit this page for more details.


JPL Small-Body Database Browser
Search: [ help ]  
357579 (2004 TG241)
Classification: Main-belt Asteroid          SPK-ID: 2357579
Ephemeris | Orbit Diagram | Orbital Elements | Mission Design | Physical Parameters | Discovery Circumstances | Close-Approach Data ]

[ show orbit diagram ]
Orbital Elements at Epoch 2458600.5 (2019-Apr-27.0) TDB
Reference: JPL 5 (heliocentric ecliptic J2000)
 Element Value Uncertainty (1-sigma)   Units 
e .2625812175880843 1.4594e-07  
a 2.347645867129373 3.4615e-08 au
q 1.731198156872908 3.6181e-07 au
i 5.883523864871715 1.2058e-05 deg
node 350.3846746671333 0.00010529 deg
peri 29.06814659530304 0.00011086 deg
M 18.73934228982381 4.6188e-05 deg
tp 2458532.108969274997
(2019-Feb-17.60896927)
0.00016725 TDB
period 1313.854599601992
3.60
2.9059e-05
7.956e-08
d
yr
n .2740029224763953 6.0601e-09 deg/d
Q 2.964093577385838 4.3705e-08 au
  Orbit Determination Parameters
   # obs. used (total)      81  
   data-arc span      5986 days (16.39 yr)  
   first obs. used      2002-03-18  
   last obs. used      2018-08-07  
   planetary ephem.      DE431  
   SB-pert. ephem.      SB431-N16  
   condition code      0  
   norm. resid. RMS      .58717  
   source      ORB  
   producer      Otto Matic  
   solution date      2019-Jul-13 19:21:07  

Additional Information
 Earth MOID = .735077 au 
 Jupiter MOID = 2.51079 au 
 T_jup = 3.506 
[ hide covariance matrix ]
Orbital Elements at Epoch 2457324.5 (2015-Oct-29.0) TDB
Reference: JPL 5 (heliocentric ecliptic J2000)
 Element Value Uncertainty (1-sigma)   Units 
e .2625606623769787 1.4689e-07  
q 1.731083138480758 3.6468e-07 au
tp 2457215.636342932416
(2015-Jul-12.13634293)
0.00014224 TDB
node 350.4850146407725 0.00010492 deg
peri 28.48544206032137 0.00011054 deg
i 5.896526359088704 1.2077e-05 deg
  Orbit Determination Parameters
   # obs. used (total)      81  
   data-arc span      5986 days (16.39 yr)  
   first obs. used      2002-03-18  
   last obs. used      2018-08-07  
   planetary ephem.      DE431  
   SB-pert. ephem.      SB431-N16  
   condition code      0  
   norm. resid. RMS      .58717  
   source      ORB  
   producer      Otto Matic  
   solution date      2019-Jul-13 19:21:07  

Additional Information
 Jupiter MOID = 2.51079 au 
 T_jup = 3.506 
Orbit Covariance (6×6)
  e q tp node peri i
e 2.157726472031815E-14 -5.350601618535116E-14 -1.385529571998199E-11 -6.486697176169314E-14 -2.728667547318637E-12 -8.442992348678122E-14
q -5.350601618535116E-14 1.329928545195354E-13 3.56112211565824E-11 1.747805315101893E-13 7.108192956470327E-12 2.175927562861627E-13
tp -1.385529571998199E-11 3.56112211565824E-11 2.023252705163708E-8 2.005073930304381E-10 4.981330717893918E-9 1.050687115335682E-10
node -6.486697176169314E-14 1.747805315101893E-13 2.005073930304381E-10 1.100923401705619E-8 -1.089426082489409E-8 -2.91341596406248E-10
peri -2.728667547318637E-12 7.108192956470327E-12 4.981330717893918E-9 -1.089426082489409E-8 1.221947747412017E-8 3.155571036530232E-10
i -8.442992348678122E-14 2.175927562861627E-13 1.050687115335682E-10 -2.91341596406248E-10 3.155571036530232E-10 1.458528617240943E-10

Ephemeris | Orbit Diagram | Orbital Elements | Mission Design | Physical Parameters | Discovery Circumstances | Close-Approach Data ]

Physical Parameter Table
Parameter Symbol Value Units Sigma Reference Notes
absolute magnitude H 17.6   n/a MPO455581  

357579 (2004 TG241)          Discovered 2004-Sep-10 by LINEAR at Socorro
Reference: 20130327/Numbers.arcLast Updated: 2013-03-29

[ show close-approach data ]
Alternate Designations
 2004 TG241 = 2011 QK95 
Ephemeris | Orbit Diagram | Orbital Elements | Mission Design | Physical Parameters | Discovery Circumstances | Close-Approach Data ]
ABOUT SSD CREDITS/AWARDS PRIVACY/COPYRIGHT GLOSSARY LINKS
FirstGov 2020-Jan-19 08:42 UT
(server date/time)  
NASA Home Page
Site Manager:   Ryan S. Park
Webmaster  Alan B. Chamberlin